Flag for Hong Kong Weather past 2 weeks in Hong Kong, Hong Kong

Now
63 °F

Passing clouds.


Feels Like: 63 °F
Forecast: 60 / 71 °F
Wind: 7 mph from Northeast

Location: National Airport

Current Time: Feb 2, 2015 at 10:35:50 AM

Latest Report: Feb 2, 2015 at 10:00 AM


Visibility: 4 mi

Pressure: 30.33 "Hg

Humidity: 68%

Dew point: 52 °F

Location of Hong KongLocation

Historic Weather in Hong Kong — Graph

°F

Hong Kong temperature yesterday

Maximum temperature yesterday: 64 °F (at 3:00 PM)
Minimum temperature yesterday: 57 °F (at 4:00 AM)
Average temperature yesterday: 60 °F

Past Weeks' High & Low Weather Summary

 TemperatureHumidityPressure
High73 °F (Jan 22, 1:00 PM)88% (Jan 26, 4:00 AM)30.39 "Hg (Jan 26, 4:00 AM)
Low54 °F (Jan 19, 6:30 AM)22% (Jan 22, 1:30 PM)29.98 "Hg (Jan 27, 3:00 PM)
Average64 °F64%30.14 "Hg
* Reported Jan 18 9:00 AM — Feb 2 9:30 AM, Hong Kong, Weather by CustomWeather, © 2014

Note: Actual official high and low records may vary slightly from our data, if they occured in-between our weather recording intervals... More about our weather records

Advertising

Hong Kong weather history for previous 24 hours

 ConditionsComfort  
Time TempWeatherWind HumidityBarometerVisibility
9:30 AM
Feb 2
63 °FPassing clouds.6 mph68%30.30 "Hg4 mi
9:00 AM61 °FPassing clouds.7 mph72%30.30 "Hg4 mi
8:30 AM61 °FScattered clouds.9 mph72%30.30 "Hg3 mi
8:00 AM61 °FPassing clouds.9 mph72%30.30 "Hg3 mi
7:30 AM59 °FPassing clouds.7 mph77%30.30 "Hg3 mi
7:00 AM59 °FPassing clouds.7 mph77%30.30 "Hg3 mi
6:30 AM59 °FPassing clouds.7 mph82%30.27 "Hg4 mi
6:00 AM59 °FPassing clouds.8 mph82%30.27 "Hg4 mi
5:30 AM59 °FPassing clouds.8 mph82%30.27 "Hg4 mi
5:00 AM61 °FPassing clouds.8 mph77%30.27 "Hg5 mi
4:30 AM61 °FPassing clouds.7 mph72%30.27 "Hg5 mi
4:00 AM61 °FPassing clouds.3 mph72%30.27 "Hg5 mi
3:30 AM59 °FPassing clouds.3 mph77%30.27 "Hg5 mi
3:00 AM59 °FPassing clouds.5 mph77%30.27 "Hg5 mi
2:30 AM61 °FPassing clouds.6 mph72%30.27 "Hg5 mi
2:00 AM61 °FPassing clouds.8 mph72%30.30 "Hg5 mi
1:30 AM61 °FPassing clouds.7 mph72%30.30 "Hg5 mi
1:00 AM61 °FPassing clouds.5 mph72%30.30 "Hg5 mi
12:30 AM59 °FPassing clouds.6 mph77%30.30 "Hg4 mi
12:00 AM59 °FPassing clouds.6 mph77%30.30 "Hg4 mi
11:30 PM
Feb 1
59 °FPassing clouds.7 mph77%30.30 "Hg5 mi
11:00 PM59 °FClear.8 mph77%30.30 "Hg4 mi
10:30 PM61 °FClear.5 mph68%30.30 "Hg4 mi
10:00 PM59 °FClear.7 mph77%30.30 "Hg4 mi
9:30 PM59 °FClear.6 mph72%30.30 "Hg4 mi
9:00 PM59 °FClear.6 mph72%30.30 "Hg4 mi
8:30 PM59 °FClear.7 mph72%30.30 "Hg4 mi
8:00 PM59 °FClear.6 mph72%30.30 "Hg4 mi
7:30 PM59 °FClear.6 mph72%30.27 "Hg4 mi
7:00 PM61 °FClear.3 mph68%30.27 "Hg4 mi
6:30 PM63 °FClear.3 mph59%30.27 "Hg4 mi
6:00 PM63 °FPassing clouds.3 mph59%30.27 "Hg4 mi
5:30 PM63 °FPassing clouds.6 mph59%30.27 "Hg4 mi
5:00 PM63 °FPassing clouds.7 mph59%30.24 "Hg4 mi
4:30 PM63 °FPassing clouds.8 mph64%30.24 "Hg3 mi
4:00 PM64 °FPassing clouds.7 mph60%30.24 "Hg4 mi
3:30 PM63 °FPassing clouds.7 mph59%30.24 "Hg4 mi
3:00 PM64 °FPassing clouds.6 mph56%30.27 "Hg4 mi
2:30 PM63 °FPassing clouds.7 mph59%30.27 "Hg4 mi
2:00 PM63 °FPassing clouds.6 mph59%30.27 "Hg4 mi
1:30 PM63 °FScattered clouds.3 mph59%30.30 "Hg4 mi
1:00 PM61 °FScattered clouds.7 mph63%30.30 "Hg4 mi
12:30 PM61 °FScattered clouds.8 mph63%30.33 "Hg4 mi
12:00 PM59 °FScattered clouds.8 mph68%30.36 "Hg4 mi
11:30 AM59 °FScattered clouds.8 mph68%30.36 "Hg4 mi
11:00 AM59 °FScattered clouds.9 mph72%30.36 "Hg4 mi
10:30 AM59 °FScattered clouds.9 mph72%30.39 "Hg4 mi
10:00 AM57 °FScattered clouds.9 mph77%30.36 "Hg4 mi
Weather by CustomWeather, © 2014

See weather overviewHow to use our weather pages